| time (UTC) | temp F | wind direction | speed MPH | gust MPH | rain 1hr in | rain 24hr in | rain mn in | humidity % | barometer mb |
| 20260505173920 | 61 | 248 | 8.0 | 9.0 | 0.00 | 0.00 | 0.00 | 55 | 988.0 |
| 20260505173422 | 61 | 248 | 9.0 | 10.0 | 0.00 | 0.00 | 0.00 | 55 | 988.0 |
| 20260505172920 | 61 | 248 | 6.0 | 8.0 | 0.00 | 0.00 | 0.00 | 55 | 988.0 |
| 20260505172417 | 61 | 225 | 7.0 | 10.0 | 0.00 | 0.00 | 0.00 | 54 | 988.0 |
| 20260505171940 | 62 | 225 | 5.0 | 9.0 | 0.00 | 0.00 | 0.00 | 54 | 988.0 |
| 20260505171420 | 62 | 248 | 8.0 | 12.0 | 0.00 | 0.00 | 0.00 | 54 | 987.9 |
| 20260505170921 | 62 | 225 | 5.0 | 8.0 | 0.00 | 0.00 | 0.00 | 54 | 987.9 |
| 20260505170417 | 62 | 248 | 8.0 | 12.0 | 0.00 | 0.00 | 0.00 | 54 | 987.9 |
| 20260505165917 | 62 | 225 | 9.0 | 11.0 | 0.00 | 0.00 | 0.00 | 53 | 987.8 |
| 20260505165418 | 62 | 225 | 11.0 | 14.0 | 0.00 | 0.00 | 0.00 | 53 | 987.9 |
| 20260505164917 | 62 | 225 | 14.0 | 16.0 | 0.00 | 0.00 | 0.00 | 54 | 987.8 |
| 20260505164420 | 62 | 248 | 11.0 | 13.0 | 0.00 | 0.00 | 0.00 | 53 | 987.8 |
| 20260505163920 | 62 | 225 | 14.0 | 15.0 | 0.00 | 0.00 | 0.00 | 53 | 987.8 |
| 20260505163417 | 62 | 225 | 12.0 | 15.0 | 0.00 | 0.00 | 0.00 | 54 | 987.9 |
| 20260505162919 | 62 | 225 | 13.0 | 17.0 | 0.00 | 0.00 | 0.00 | 53 | 987.9 |
| 20260505162419 | 62 | 248 | 13.0 | 15.0 | 0.00 | 0.00 | 0.00 | 54 | 987.9 |
| 20260505161918 | 62 | 248 | 12.0 | 18.0 | 0.00 | 0.00 | 0.00 | 53 | 988.0 |
| 20260505161419 | 62 | 248 | 9.0 | 12.0 | 0.00 | 0.00 | 0.00 | 53 | 987.8 |
| 20260505160940 | 62 | 248 | 11.0 | 15.0 | 0.00 | 0.00 | 0.00 | 54 | 987.8 |
| 20260505160417 | 62 | 248 | 10.0 | 13.0 | 0.00 | 0.00 | 0.00 | 53 | 987.8 |
| 20260505152917 | 64 | 248 | 14.0 | 19.0 | 0.00 | 0.00 | 0.00 | 52 | 987.7 |
| 20260505152418 | 64 | 248 | 15.0 | 19.0 | 0.00 | 0.00 | 0.00 | 51 | 987.5 |
| 20260505151918 | 64 | 248 | 12.0 | 16.0 | 0.00 | 0.00 | 0.00 | 51 | 987.3 |
| 20260505151417 | 64 | 248 | 11.0 | 15.0 | 0.00 | 0.00 | 0.00 | 50 | 987.2 |
| 20260505150917 | 65 | 225 | 11.0 | 15.0 | 0.00 | 0.00 | 0.00 | 50 | 987.2 |
| 20260505150417 | 65 | 248 | 10.0 | 14.0 | 0.00 | 0.00 | 0.00 | 50 | 986.9 |
| 20260505140417 | 63 | 248 | 11.0 | 17.0 | 0.00 | 0.00 | 0.00 | 50 | 985.7 |
| 20260505124920 | 62 | 225 | 12.0 | 15.0 | 0.00 | 0.00 | 0.00 | 52 | 985.8 |
| 20260505124419 | 62 | 225 | 8.0 | 11.0 | 0.00 | 0.00 | 0.00 | 53 | 985.7 |
| 20260505123920 | 62 | 248 | 7.0 | 9.0 | 0.00 | 0.00 | 0.00 | 53 | 985.7 |
| 20260505123418 | 62 | 225 | 10.0 | 12.0 | 0.00 | 0.00 | 0.00 | 52 | 985.8 |
| 20260505122920 | 62 | 225 | 10.0 | 12.0 | 0.00 | 0.00 | 0.00 | 52 | 985.7 |
| 20260505122458 | 62 | 225 | 9.0 | 11.0 | 0.00 | 0.00 | 0.00 | 53 | 985.7 |
| 20260505121920 | 62 | 248 | 9.0 | 11.0 | 0.00 | 0.00 | 0.00 | 53 | 985.6 |
| 20260505121419 | 61 | 248 | 10.0 | 13.0 | 0.00 | 0.00 | 0.00 | 52 | 985.6 |
| 20260505120917 | 61 | 225 | 10.0 | 11.0 | 0.00 | 0.00 | 0.00 | 53 | 985.5 |
| 20260505120420 | 61 | 225 | 12.0 | 13.0 | 0.00 | 0.00 | 0.00 | 53 | 985.4 |
| 20260505115937 | 61 | 225 | 11.0 | 13.0 | 0.00 | 0.00 | 0.00 | 53 | 985.2 |
| 20260505115417 | 61 | 248 | 12.0 | 14.0 | 0.00 | 0.00 | 0.00 | 52 | 985.2 |
| 20260505114917 | 62 | 225 | 11.0 | 14.0 | 0.00 | 0.00 | 0.00 | 53 | 985.0 |
| 20260505114417 | 62 | 225 | 12.0 | 13.0 | 0.00 | 0.00 | 0.00 | 52 | 984.8 |
| 20260505113919 | 62 | 225 | 12.0 | 14.0 | 0.00 | 0.00 | 0.00 | 53 | 984.6 |
| 20260505113420 | 62 | 225 | 14.0 | 17.0 | 0.00 | 0.00 | 0.00 | 52 | 984.5 |
| 20260505112920 | 62 | 225 | 14.0 | 17.0 | 0.00 | 0.00 | 0.00 | 53 | 984.3 |
| 20260505112417 | 62 | 225 | 13.0 | 17.0 | 0.00 | 0.00 | 0.00 | 52 | 984.2 |
| 20260505111920 | 62 | 225 | 14.0 | 17.0 | 0.00 | 0.00 | 0.00 | 52 | 983.9 |
| 20260505111439 | 62 | 225 | 12.0 | 14.0 | 0.00 | 0.00 | 0.00 | 52 | 984.0 |
| 20260505110917 | 62 | 225 | 14.0 | 18.0 | 0.00 | 0.00 | 0.00 | 51 | 984.1 |
| 20260505110417 | 62 | 225 | 14.0 | 17.0 | 0.00 | 0.00 | 0.00 | 51 | 983.9 |
| 20260505101939 | 63 | 225 | 17.0 | 20.0 | 0.00 | 0.00 | 0.00 | 50 | 983.7 |
| 20260505101417 | 63 | 225 | 17.0 | 20.0 | 0.00 | 0.00 | 0.00 | 50 | 983.6 |
| 20260505100919 | 63 | 225 | 19.0 | 23.0 | 0.00 | 0.00 | 0.00 | 50 | 983.7 |
| 20260505100419 | 63 | 225 | 24.0 | 32.0 | 0.00 | 0.00 | 0.00 | 49 | 983.6 |
| 20260505095921 | 63 | 225 | 22.0 | 29.0 | 0.00 | 0.00 | 0.00 | 50 | 983.6 |
| 20260505095419 | 63 | 225 | 21.0 | 24.0 | 0.00 | 0.00 | 0.00 | 49 | 983.6 |
| 20260505094919 | 63 | 225 | 23.0 | 29.0 | 0.00 | 0.00 | 0.00 | 49 | 983.3 |
| 20260505094419 | 63 | 225 | 22.0 | 27.0 | 0.00 | 0.00 | 0.00 | 50 | 983.2 |
| 20260505093936 | 63 | 225 | 21.0 | 25.0 | 0.00 | 0.00 | 0.00 | 50 | 983.1 |
| 20260505093419 | 63 | 203 | 20.0 | 23.0 | 0.00 | 0.00 | 0.00 | 50 | 983.0 |
| 20260505092918 | 64 | 225 | 16.0 | 22.0 | 0.00 | 0.00 | 0.00 | 50 | 983.1 |
| 20260505092520 | 64 | 225 | 20.0 | 25.0 | 0.00 | 0.00 | 0.00 | 50 | 983.1 |
| 20260505091917 | 64 | 225 | 15.0 | 16.0 | 0.00 | 0.00 | 0.00 | 50 | 983.1 |
| 20260505091418 | 64 | 225 | 15.0 | 19.0 | 0.00 | 0.00 | 0.00 | 50 | 983.1 |
| 20260505090916 | 64 | 225 | 16.0 | 21.0 | 0.00 | 0.00 | 0.00 | 50 | 983.2 |
| 20260505090439 | 64 | 225 | 14.0 | 16.0 | 0.00 | 0.00 | 0.00 | 50 | 983.1 |
| 20260505085939 | 64 | 225 | 16.0 | 20.0 | 0.00 | 0.00 | 0.00 | 50 | 983.1 |
| 20260505085417 | 64 | 225 | 15.0 | 19.0 | 0.00 | 0.00 | 0.00 | 51 | 983.0 |
| 20260505084957 | 64 | 225 | 15.0 | 18.0 | 0.00 | 0.00 | 0.00 | 51 | 982.9 |
| 20260505084419 | 64 | 225 | 15.0 | 18.0 | 0.00 | 0.00 | 0.00 | 51 | 983.0 |
| 20260505083941 | 64 | 225 | 12.0 | 14.0 | 0.00 | 0.00 | 0.00 | 51 | 982.9 |
| 20260505083419 | 64 | 203 | 11.0 | 15.0 | 0.00 | 0.00 | 0.00 | 51 | 982.8 |
| 20260505082919 | 64 | 225 | 11.0 | 13.0 | 0.00 | 0.00 | 0.00 | 51 | 982.7 |
| 20260505082417 | 64 | 225 | 10.0 | 13.0 | 0.00 | 0.00 | 0.00 | 51 | 982.6 |
| 20260505081918 | 64 | 225 | 9.0 | 13.0 | 0.00 | 0.00 | 0.00 | 51 | 982.7 |
| 20260505081420 | 64 | 225 | 10.0 | 12.0 | 0.00 | 0.00 | 0.00 | 51 | 982.8 |
| 20260505080919 | 64 | 203 | 10.0 | 11.0 | 0.00 | 0.00 | 0.00 | 51 | 982.7 |
| 20260505080419 | 64 | 225 | 11.0 | 13.0 | 0.00 | 0.00 | 0.00 | 51 | 982.6 |
| 20260505075916 | 64 | 225 | 11.0 | 13.0 | 0.00 | 0.00 | 0.00 | 50 | 982.5 |
| 20260505075417 | 64 | 225 | 10.0 | 13.0 | 0.00 | 0.00 | 0.00 | 50 | 982.5 |
| 20260505074941 | 64 | 225 | 10.0 | 13.0 | 0.00 | 0.00 | 0.00 | 50 | 982.4 |
| 20260505074419 | 64 | 225 | 9.0 | 10.0 | 0.00 | 0.00 | 0.00 | 50 | 982.5 |
| 20260505073921 | 65 | 225 | 9.0 | 11.0 | 0.00 | 0.00 | 0.00 | 50 | 982.5 |
| 20260505073419 | 65 | 225 | 8.0 | 10.0 | 0.00 | 0.00 | 0.00 | 50 | 982.6 |
| 20260505072919 | 65 | 225 | 7.0 | 8.0 | 0.00 | 0.00 | 0.00 | 50 | 982.5 |
| 20260505072417 | 65 | 225 | 6.0 | 6.0 | 0.00 | 0.00 | 0.00 | 49 | 982.7 |
| 20260505071919 | 66 | 225 | 5.0 | 6.0 | 0.00 | 0.00 | 0.00 | 48 | 982.6 |
| 20260505071439 | 66 | 225 | 4.0 | 6.0 | 0.00 | 0.00 | 0.00 | 48 | 982.7 |
| 20260505070917 | 66 | 225 | 5.0 | 6.0 | 0.00 | 0.00 | 0.00 | 47 | 982.6 |
| 20260505070419 | 67 | 225 | 5.0 | 6.0 | 0.00 | 0.00 | 0.00 | 46 | 982.7 |
| 20260505065940 | 67 | 248 | 6.0 | 8.0 | 0.00 | 0.00 | 0.00 | 46 | 982.6 |
| 20260505065437 | 67 | 225 | 4.0 | 5.0 | 0.00 | 0.00 | 0.00 | 46 | 982.7 |
| 20260505064919 | 67 | 225 | 5.0 | 6.0 | 0.00 | 0.00 | 0.00 | 46 | 982.7 |
| 20260505064420 | 67 | 248 | 5.0 | 6.0 | 0.00 | 0.00 | 0.00 | 46 | 982.9 |
| 20260505063941 | 67 | 225 | 8.0 | 10.0 | 0.00 | 0.00 | 0.00 | 45 | 983.0 |
| 20260505063441 | 67 | 248 | 9.0 | 12.0 | 0.00 | 0.00 | 0.00 | 47 | 983.0 |
| 20260505062922 | 67 | 225 | 7.0 | 9.0 | 0.00 | 0.00 | 0.00 | 47 | 983.0 |
| 20260505062418 | 68 | 270 | 10.0 | 12.0 | 0.00 | 0.00 | 0.00 | 46 | 982.9 |
| 20260505061918 | 68 | 225 | 11.0 | 13.0 | 0.00 | 0.00 | 0.00 | 45 | 982.7 |
| 20260505061421 | 67 | 225 | 19.0 | 25.0 | 0.00 | 0.00 | 0.00 | 45 | 982.5 |
| 20260505060921 | 67 | 225 | 17.0 | 26.0 | 0.00 | 0.00 | 0.00 | 46 | 982.4 |
| 20260505060442 | 67 | 225 | 16.0 | 20.0 | 0.00 | 0.00 | 0.00 | 46 | 982.3 |
| 20260505055921 | 67 | 225 | 16.0 | 23.0 | 0.00 | 0.00 | 0.00 | 46 | 982.3 |
| 20260505055418 | 67 | 225 | 16.0 | 23.0 | 0.00 | 0.00 | 0.00 | 47 | 982.3 |
| 20260505054921 | 67 | 203 | 12.0 | 17.0 | 0.00 | 0.00 | 0.00 | 47 | 982.3 |
| 20260505054420 | 67 | 203 | 11.0 | 18.0 | 0.00 | 0.00 | 0.00 | 47 | 982.4 |
| 20260505053921 | 67 | 225 | 8.0 | 12.0 | 0.00 | 0.00 | 0.00 | 47 | 982.2 |
| 20260505053421 | 67 | 203 | 11.0 | 14.0 | 0.00 | 0.00 | 0.00 | 47 | 982.4 |
| 20260505052922 | 67 | 203 | 7.0 | 12.0 | 0.00 | 0.00 | 0.00 | 47 | 982.3 |
| 20260505052420 | 67 | 203 | 11.0 | 18.0 | 0.00 | 0.00 | 0.00 | 47 | 982.4 |
| 20260505051920 | 67 | 180 | 11.0 | 18.0 | 0.00 | 0.00 | 0.00 | 47 | 982.4 |
| 20260505051420 | 67 | 203 | 12.0 | 19.0 | 0.00 | 0.00 | 0.00 | 46 | 982.6 |
| 20260505050941 | 67 | 203 | 9.0 | 16.0 | 0.00 | 0.00 | 0.00 | 46 | 982.6 |
| 20260505050441 | 68 | 203 | 10.0 | 15.0 | 0.00 | 0.00 | 0.00 | 46 | 982.7 |
| 20260505041418 | 68 | 203 | 9.0 | 14.0 | 0.00 | 0.00 | 0.00 | 46 | 982.9 |
| 20260505040918 | 68 | 203 | 14.0 | 21.0 | 0.00 | 0.00 | 0.00 | 46 | 982.9 |
| 20260505040440 | 68 | 225 | 11.0 | 16.0 | 0.00 | 0.00 | 0.00 | 46 | 982.9 |
| 20260505035939 | 67 | 180 | 8.0 | 13.0 | 0.00 | 0.00 | 0.00 | 46 | 983.0 |
| 20260505035421 | 67 | 203 | 10.0 | 16.0 | 0.00 | 0.00 | 0.00 | 47 | 983.0 |
| 20260505034918 | 67 | 180 | 9.0 | 15.0 | 0.00 | 0.00 | 0.00 | 46 | 983.0 |
| 20260505034422 | 67 | 203 | 9.0 | 14.0 | 0.00 | 0.00 | 0.00 | 46 | 983.1 |
| 20260505033918 | 67 | 180 | 8.0 | 9.0 | 0.00 | 0.00 | 0.00 | 46 | 983.2 |
| 20260505033418 | 67 | 203 | 8.0 | 13.0 | 0.00 | 0.00 | 0.00 | 46 | 983.2 |
| 20260505032922 | 67 | 203 | 7.0 | 10.0 | 0.00 | 0.00 | 0.00 | 47 | 983.2 |
| 20260505032419 | 67 | 203 | 8.0 | 14.0 | 0.00 | 0.00 | 0.00 | 47 | 983.2 |
| 20260505031920 | 67 | 180 | 9.0 | 14.0 | 0.00 | 0.00 | 0.00 | 47 | 983.3 |
| 20260505031420 | 67 | 203 | 6.0 | 11.0 | 0.00 | 0.00 | 0.00 | 47 | 983.4 |
| 20260505030939 | 67 | 225 | 7.0 | 13.0 | 0.00 | 0.00 | 0.00 | 46 | 983.4 |
| 20260505030418 | 67 | 203 | 9.0 | 15.0 | 0.00 | 0.00 | 0.00 | 46 | 983.4 |
| 20260505025921 | 67 | 203 | 7.0 | 13.0 | 0.00 | 0.00 | 0.00 | 46 | 983.5 |
| 20260505025418 | 67 | 203 | 8.0 | 14.0 | 0.00 | 0.00 | 0.00 | 45 | 983.6 |
| 20260505024920 | 67 | 203 | 7.0 | 10.0 | 0.00 | 0.00 | 0.00 | 46 | 983.5 |
| 20260505024421 | 67 | 203 | 7.0 | 9.0 | 0.00 | 0.00 | 0.00 | 45 | 983.4 |
| 20260505023920 | 67 | 203 | 9.0 | 16.0 | 0.00 | 0.00 | 0.00 | 45 | 983.4 |
| 20260505023418 | 68 | 203 | 7.0 | 11.0 | 0.00 | 0.00 | 0.00 | 45 | 983.4 |
| 20260505022921 | 68 | 203 | 10.0 | 17.0 | 0.00 | 0.00 | 0.00 | 45 | 983.4 |
| 20260505022418 | 68 | 203 | 11.0 | 19.0 | 0.00 | 0.00 | 0.00 | 45 | 983.4 |
| 20260505021921 | 68 | 203 | 11.0 | 15.0 | 0.00 | 0.00 | 0.00 | 45 | 983.4 |
| 20260505021420 | 68 | 203 | 9.0 | 13.0 | 0.00 | 0.00 | 0.00 | 45 | 983.3 |
| 20260505020939 | 68 | 203 | 9.0 | 14.0 | 0.00 | 0.00 | 0.00 | 44 | 983.3 |
| 20260505020418 | 68 | 225 | 12.0 | 18.0 | 0.00 | 0.00 | 0.00 | 44 | 983.4 |
| 20260505015918 | 68 | 225 | 13.0 | 20.0 | 0.00 | 0.00 | 0.00 | 43 | 983.4 |
| 20260505015420 | 68 | 203 | 9.0 | 14.0 | 0.00 | 0.00 | 0.00 | 43 | 983.5 |
| 20260505014922 | 69 | 203 | 8.0 | 17.0 | 0.00 | 0.00 | 0.00 | 43 | 983.4 |
| 20260505014421 | 69 | 225 | 16.0 | 23.0 | 0.00 | 0.00 | 0.00 | 42 | 983.3 |
| 20260505013918 | 69 | 225 | 12.0 | 17.0 | 0.00 | 0.00 | 0.00 | 42 | 983.3 |
| 20260505013421 | 69 | 203 | 8.0 | 14.0 | 0.00 | 0.00 | 0.00 | 41 | 983.2 |
| 20260505012920 | 70 | 203 | 7.0 | 10.0 | 0.00 | 0.00 | 0.00 | 40 | 983.1 |
| 20260505012418 | 70 | 180 | 7.0 | 9.0 | 0.00 | 0.00 | 0.00 | 39 | 983.0 |
| 20260505011918 | 70 | 180 | 9.0 | 18.0 | 0.00 | 0.00 | 0.00 | 39 | 983.1 |
| 20260505011421 | 70 | 203 | 8.0 | 14.0 | 0.00 | 0.00 | 0.00 | 39 | 983.0 |
| 20260505010921 | 70 | 203 | 7.0 | 10.0 | 0.00 | 0.00 | 0.00 | 39 | 983.0 |
| 20260505010440 | 70 | 203 | 15.0 | 19.0 | 0.00 | 0.00 | 0.00 | 39 | 983.0 |
| 20260505005920 | 70 | 203 | 13.0 | 18.0 | 0.00 | 0.00 | 0.00 | 39 | 982.9 |
| 20260505005418 | 70 | 203 | 8.0 | 14.0 | 0.00 | 0.00 | 0.00 | 39 | 982.9 |
| 20260505004941 | 70 | 203 | 9.0 | 14.0 | 0.00 | 0.00 | 0.00 | 39 | 982.9 |
| 20260505004421 | 71 | 203 | 9.0 | 13.0 | 0.00 | 0.00 | 0.00 | 38 | 982.7 |
| 20260505003918 | 71 | 225 | 12.0 | 14.0 | 0.00 | 0.00 | 0.00 | 38 | 982.7 |
| 20260505003418 | 71 | 225 | 14.0 | 18.0 | 0.00 | 0.00 | 0.00 | 38 | 982.6 |
| 20260505002918 | 71 | 225 | 16.0 | 21.0 | 0.00 | 0.00 | 0.00 | 38 | 982.4 |
| 20260505002438 | 71 | 225 | 14.0 | 18.0 | 0.00 | 0.00 | 0.00 | 38 | 982.4 |
| 20260505001958 | 71 | 225 | 16.0 | 18.0 | 0.00 | 0.00 | 0.00 | 38 | 982.4 |
| 20260505001418 | 71 | 225 | 16.0 | 17.0 | 0.00 | 0.00 | 0.00 | 37 | 982.4 |
| 20260505000918 | 72 | 203 | 16.0 | 21.0 | 0.00 | 0.00 | 0.00 | 37 | 982.3 |
| 20260505000420 | 72 | 225 | 17.0 | 23.0 | 0.00 | 0.00 | 0.00 | 37 | 982.2 |
| 20260504235918 | 72 | 225 | 18.0 | 20.0 | 0.00 | 0.00 | 0.00 | 38 | 982.2 |
| 20260504235418 | 72 | 225 | 19.0 | 24.0 | 0.00 | 0.00 | 0.00 | 38 | 982.2 |
| 20260504234918 | 72 | 225 | 19.0 | 22.0 | 0.00 | 0.00 | 0.00 | 38 | 982.3 |
| 20260504234417 | 72 | 225 | 21.0 | 29.0 | 0.00 | 0.00 | 0.00 | 38 | 982.1 |
| 20260504233938 | 72 | 225 | 18.0 | 22.0 | 0.00 | 0.00 | 0.00 | 37 | 982.1 |
| 20260504233418 | 72 | 225 | 16.0 | 21.0 | 0.00 | 0.00 | 0.00 | 37 | 982.2 |
| 20260504232918 | 73 | 225 | 21.0 | 27.0 | 0.00 | 0.00 | 0.00 | 36 | 981.9 |
| 20260504232418 | 73 | 225 | 20.0 | 24.0 | 0.00 | 0.00 | 0.00 | 37 | 982.0 |
| 20260504231918 | 73 | 225 | 19.0 | 25.0 | 0.00 | 0.00 | 0.00 | 37 | 981.9 |
| 20260504231418 | 73 | 225 | 16.0 | 22.0 | 0.00 | 0.00 | 0.00 | 38 | 981.9 |
| 20260504230919 | 73 | 225 | 22.0 | 25.0 | 0.00 | 0.00 | 0.00 | 37 | 981.8 |
| 20260504230418 | 74 | 225 | 19.0 | 20.0 | 0.00 | 0.00 | 0.00 | 37 | 981.8 |
| 20260504225919 | 74 | 225 | 19.0 | 26.0 | 0.00 | 0.00 | 0.00 | 37 | 981.7 |
| 20260504225418 | 74 | 225 | 19.0 | 25.0 | 0.00 | 0.00 | 0.00 | 38 | 981.7 |
| 20260504224917 | 74 | 225 | 20.0 | 25.0 | 0.00 | 0.00 | 0.00 | 37 | 981.8 |
| 20260504224418 | 74 | 225 | 20.0 | 28.0 | 0.00 | 0.00 | 0.00 | 37 | 981.9 |
| 20260504223917 | 74 | 225 | 24.0 | 32.0 | 0.00 | 0.00 | 0.00 | 37 | 981.9 |
| 20260504223438 | 74 | 225 | 22.0 | 29.0 | 0.00 | 0.00 | 0.00 | 38 | 982.0 |
| 20260504222918 | 74 | 225 | 22.0 | 28.0 | 0.00 | 0.00 | 0.00 | 37 | 982.0 |
| 20260504222418 | 74 | 225 | 25.0 | 28.0 | 0.00 | 0.00 | 0.00 | 38 | 982.0 |
| 20260504221918 | 74 | 225 | 21.0 | 28.0 | 0.00 | 0.00 | 0.00 | 37 | 982.1 |
| 20260504221418 | 74 | 203 | 25.0 | 30.0 | 0.00 | 0.00 | 0.00 | 37 | 982.1 |
| 20260504220918 | 74 | 225 | 24.0 | 31.0 | 0.00 | 0.00 | 0.00 | 37 | 982.1 |
| 20260504220418 | 74 | 225 | 20.0 | 31.0 | 0.00 | 0.00 | 0.00 | 37 | 982.2 |
| 20260504215938 | 74 | 225 | 19.0 | 22.0 | 0.00 | 0.00 | 0.00 | 37 | 982.2 |
| 20260504215438 | 74 | 225 | 26.0 | 35.0 | 0.00 | 0.00 | 0.00 | 36 | 981.9 |
| 20260504214917 | 74 | 225 | 21.0 | 27.0 | 0.00 | 0.00 | 0.00 | 36 | 982.2 |
| 20260504214417 | 74 | 225 | 20.0 | 23.0 | 0.00 | 0.00 | 0.00 | 37 | 982.2 |
| 20260504213918 | 74 | 225 | 21.0 | 24.0 | 0.00 | 0.00 | 0.00 | 38 | 982.3 |
| 20260504213418 | 74 | 225 | 23.0 | 28.0 | 0.00 | 0.00 | 0.00 | 38 | 982.1 |
| 20260504212918 | 74 | 225 | 15.0 | 20.0 | 0.00 | 0.00 | 0.00 | 38 | 982.3 |
| 20260504212417 | 74 | 225 | 17.0 | 21.0 | 0.00 | 0.00 | 0.00 | 38 | 982.3 |
| 20260504211938 | 74 | 225 | 21.0 | 25.0 | 0.00 | 0.00 | 0.00 | 37 | 982.2 |
| 20260504211417 | 74 | 225 | 17.0 | 22.0 | 0.00 | 0.00 | 0.00 | 39 | 982.4 |
| 20260504210918 | 74 | 180 | 9.0 | 17.0 | 0.00 | 0.00 | 0.00 | 40 | 982.5 |
| 20260504210420 | 74 | 225 | 12.0 | 18.0 | 0.00 | 0.00 | 0.00 | 39 | 982.6 |
| 20260504205919 | 73 | 203 | 14.0 | 23.0 | 0.00 | 0.00 | 0.00 | 39 | 982.6 |
| 20260504205418 | 73 | 203 | 12.0 | 17.0 | 0.00 | 0.00 | 0.00 | 39 | 982.7 |
| 20260504204919 | 73 | 225 | 12.0 | 17.0 | 0.00 | 0.00 | 0.00 | 40 | 982.8 |
| 20260504204419 | 73 | 203 | 9.0 | 17.0 | 0.00 | 0.00 | 0.00 | 39 | 982.9 |
| 20260504203919 | 73 | 203 | 8.0 | 15.0 | 0.00 | 0.00 | 0.00 | 39 | 983.0 |
| 20260504203417 | 73 | 180 | 14.0 | 22.0 | 0.00 | 0.00 | 0.00 | 37 | 983.0 |
| 20260504202919 | 73 | 225 | 15.0 | 18.0 | 0.00 | 0.00 | 0.00 | 39 | 983.1 |
| 20260504202438 | 73 | 225 | 22.0 | 29.0 | 0.00 | 0.00 | 0.00 | 38 | 983.1 |
| 20260504201920 | 73 | 225 | 24.0 | 33.0 | 0.00 | 0.00 | 0.00 | 39 | 983.2 |
| 20260504201421 | 73 | 225 | 19.0 | 20.0 | 0.00 | 0.00 | 0.00 | 38 | 983.3 |
| 20260504200918 | 73 | 225 | 15.0 | 20.0 | 0.00 | 0.00 | 0.00 | 38 | 983.4 |
| 20260504200418 | 72 | 203 | 16.0 | 23.0 | 0.00 | 0.00 | 0.00 | 38 | 983.4 |
| 20260504195917 | 72 | 203 | 19.0 | 25.0 | 0.00 | 0.00 | 0.00 | 38 | 983.5 |
| 20260504195419 | 72 | 225 | 22.0 | 25.0 | 0.00 | 0.00 | 0.00 | 38 | 983.6 |
| 20260504194918 | 72 | 225 | 17.0 | 23.0 | 0.00 | 0.00 | 0.00 | 36 | 983.6 |
| 20260504194417 | 72 | 225 | 15.0 | 21.0 | 0.00 | 0.00 | 0.00 | 35 | 983.6 |
| 20260504193940 | 72 | 225 | 25.0 | 30.0 | 0.00 | 0.00 | 0.00 | 37 | 983.8 |
| 20260504193437 | 72 | 203 | 11.0 | 17.0 | 0.00 | 0.00 | 0.00 | 37 | 984.0 |
| 20260504192918 | 72 | 203 | 11.0 | 16.0 | 0.00 | 0.00 | 0.00 | 38 | 984.0 |
| 20260504192418 | 71 | 203 | 12.0 | 20.0 | 0.00 | 0.00 | 0.00 | 39 | 984.1 |
| 20260504191958 | 71 | 203 | 11.0 | 14.0 | 0.00 | 0.00 | 0.00 | 39 | 984.1 |
| 20260504191421 | 71 | 203 | 10.0 | 15.0 | 0.00 | 0.00 | 0.00 | 38 | 984.1 |
| 20260504190920 | 71 | 225 | 14.0 | 20.0 | 0.00 | 0.00 | 0.00 | 40 | 984.3 |
| 20260504190419 | 71 | 203 | 8.0 | 12.0 | 0.00 | 0.00 | 0.00 | 39 | 984.4 |
| 20260504185920 | 71 | 203 | 12.0 | 23.0 | 0.00 | 0.00 | 0.00 | 41 | 984.4 |
| 20260504185419 | 71 | 225 | 10.0 | 18.0 | 0.00 | 0.00 | 0.00 | 40 | 984.4 |
| 20260504184919 | 70 | 225 | 16.0 | 21.0 | 0.00 | 0.00 | 0.00 | 40 | 984.5 |
| 20260504184421 | 70 | 203 | 12.0 | 18.0 | 0.00 | 0.00 | 0.00 | 41 | 984.6 |
| 20260504183918 | 70 | 203 | 13.0 | 23.0 | 0.00 | 0.00 | 0.00 | 40 | 984.8 |
| 20260504183419 | 70 | 203 | 20.0 | 27.0 | 0.00 | 0.00 | 0.00 | 40 | 985.0 |
| 20260504182917 | 70 | 180 | 10.0 | 17.0 | 0.00 | 0.00 | 0.00 | 40 | 984.8 |
| 20260504182419 | 70 | 203 | 7.0 | 12.0 | 0.00 | 0.00 | 0.00 | 39 | 984.9 |
| 20260504181919 | 70 | 203 | 10.0 | 14.0 | 0.00 | 0.00 | 0.00 | 40 | 985.0 |
| 20260504181417 | 70 | 203 | 10.0 | 18.0 | 0.00 | 0.00 | 0.00 | 40 | 985.1 |
| 20260504180918 | 70 | 225 | 10.0 | 13.0 | 0.00 | 0.00 | 0.00 | 38 | 985.3 |
| 20260504180418 | 70 | 225 | 14.0 | 22.0 | 0.00 | 0.00 | 0.00 | 39 | 985.1 |
| 20260504175940 | 69 | 203 | 11.0 | 19.0 | 0.00 | 0.00 | 0.00 | 40 | 985.3 |
| 20260504175437 | 69 | 225 | 13.0 | 19.0 | 0.00 | 0.00 | 0.00 | 39 | 985.4 |
| 20260504174920 | 69 | 203 | 12.0 | 20.0 | 0.00 | 0.00 | 0.00 | 41 | 985.5 |
| 20260504174417 | 69 | 203 | 9.0 | 17.0 | 0.00 | 0.00 | 0.00 | 41 | 985.5 |